Вернуться в каталог

STARLINK-37550

АктивенСвязьVLEO
NORAD 100277·PAYLOAD·🇺🇸 United States

Запущен Aug 11, 2026 с Cape Canaveral Space Force Station

Loading…

Ближайшие Пролёты (ближайшие 24 часа)

TLE

УстаревающийSource: Space-Track

Эпоха: Sep 12, 2026, 14:47 UTC

1 A0277U 26183F   26255.61656217 -.00748338  00000-0 -60756-2 0  9991
2 A0277  53.1568 296.3800 0001293  65.0674 295.0480 15.72195858  5067

Отслеживайте STARLINK-37550 в реальном времени с AllMySat

Download on the App Store